Regional Weather Roundup
Issued by NWS State College, PA

Current Version | Previous Version | Text Only | Print | Product List | Glossary On
Versions: 1 2 3 4 5 6 7 8 9 10 11 12 13 14 15 16 17 18 19 20 21 22 23 24 25 26 27 28 29 30 31 32 33 34 35 36 37 38 39 40 41 42 43 44 45 46 47 48 49 50
000
ASUS41 KCTP 281810
RWRCTP

REGIONAL WEATHER ROUNDUP
NATIONAL WEATHER SERVICE STATE COLLEGE PA
200 PM EDT THU JUL 28 2016

Note: "fair" indicates few or no clouds below 12,000 feet with no
significant weather and/or obstructions to visibility.

* = STATION THAT DOES NOT REPORT PRECIPITATION /E.G. RAIN...SNOW...ETC/
    THUNDER OR FOG.

PAZ002>004-007>009-013>016-020>023-029>032-281900-
WESTERN PENNSYLVANIA

CITY           SKY/WX    TMP DP  RH WIND       PRES   REMARKS
ERIE           CLOUDY    83  69  62 N12       29.89F
MEADVILLE      PTSUNNY   79  65  62 VRB6      29.92F
FRANKLIN*      PTSUNNY   81  66  61 S8        29.93F
NEW CASTLE     MOCLDY    77  71  82 VRB5      29.93F
BEAVER COUNTY  LGT RAIN  72  70  94 SW6       29.94F
BUTLER*        CLOUDY    73  70  88 SW7       29.96F
PITTSBURGH INT LGT RAIN  72  67  84 SW6       29.94S
PITTSBURGH     LGT RAIN  74  69  85 SW5       29.94S
INDIANA*       NOT AVBL
LATROBE        LGT RAIN  73  73 100 W6        29.95F
WASHINGTON CO* CLOUDY    72  66  83 CALM      29.96S
$$

PAZ004>006-010>012-017>019-024>028-033>037-041-042-045-046-049>053-281900-
CENTRAL PENNSYLVANIA

CITY           SKY/WX    TMP DP  RH WIND       PRES   REMARKS
BRADFORD       CLOUDY    82  59  45 NE5       29.97F
DUBOIS         CLOUDY    79  62  56 VRB5      29.94F
CLEARFIELD     CLOUDY    81  62  52 VRB3      29.95F
JOHNSTOWN      LGT RAIN  70  66  87 SW9       29.99F FOG
ALTOONA        LGT RAIN  71  68  90 NE5       29.97S FOG
STATE COLLEGE  MOSUNNY   77  66  69 CALM      29.93F
WILLIAMSPORT   CLOUDY    87  64  46 SW3       29.86F
SELINSGROVE    CLOUDY    88  72  58 VRB3      29.87F
FT INDIANTOWN  NOT AVBL
CAPITAL CITY   MOSUNNY   91  69  48 VRB7      29.86F HX  96
HARRISBURG     PTSUNNY   89  75  63 W5        29.85F HX  99
YORK           CLOUDY    88  73  61 NW7       29.86F HX  95
$$

PAZ038>040-043-044-047-048-054-055-060>062-067>071-281900-
EASTERN PENNSYLVANIA

CITY           SKY/WX    TMP DP  RH WIND       PRES   REMARKS
SCRANTON       PTSUNNY   88  65  46 SW6       29.88F
MOUNT POCONO   CLOUDY    83  62  49 S7        29.96F
ALLENTOWN      PTSUNNY   91  68  46 CALM      29.86F HX  95
QUAKERTOWN*    CLOUDY    91  64  40 CALM      29.89F
READING        CLOUDY    83  71  67 N7        29.86F
LANCASTER      CLOUDY    83  72  69 SE8       29.87R THUNDER
COATESVILLE    CLOUDY    73  70  88 E9G15     29.90F
POTTSTOWN      LGT RAIN  82  70  66 SW7       29.89F
BLUE BELL      CLOUDY    82  68  61 CALM      29.85F
DOYLESTOWN     CLOUDY    88  71  57 MISG      29.87F
WILLOW GROVE   NOT AVBL
NORTH PHILA    CLOUDY    89  66  46 SE8       29.86F
PHILADELPHIA   CLOUDY    95  68  41 E8        29.84F THUNDER HX  99
$$




USA.gov is the U.S. government's official web portal to all federal, state and local government web resources and services.